Content
SEND FEEDBACK

Daily
Averages
Monthly
Summary
Mexico

PUEBLA - JARDINES DE SAN MANUEL, PUEBLA


Home > North America > Mexico > Puebla
Elevation: 6962 feet     Latitude: 19 00N     Longitude: 098 11W

WEATHER
 
SELECT A DAY
Number of Records: 121,213;   Date Range: 1/1/95 - 9/21/14
 
SHARE

PRINT THIS DATA

[ ← Previous Day ]
WEATHER ALMANAC - APRIL 1, 2013
[ Next Day → ]
[ °C ]   °F
Weather ElementAverageHighLow
Temperature68.1 °F83 °F (2:50 pm)48.2 °F (5:43 am)
Dewpoint40.2 °F49 °F (11:50 am)33.8 °F (3:46 pm)
Humidity35.9 %66 % (5:43 am)14 % (5:50 pm)
Barometer30.13 in30.35 in (8:52 am)29.55 in (5:50 pm)
Wind Speed6.9 mph20.7 mph (1:48 pm)
Weather ElementAverage
Visibility6.7 mi
Wind DirectionSSW (188.3 °)

Weather ElementTotal
Precipitation---
Cooling Degree Days0.6 (Base 65)
Growing Degree Days15.6 (Base 50)
Averaged from 26 records on April 1, 2013
WEATHER CONDITIONS BREAKOUT
WIND DIRECTION BREAKOUT
WEATHER BY HOUR - APRIL 1, 2013
[ °C ]   °F
Local TimeTemperatureDewpointHumidityBarometerVisibilityWind DirectionWind SpeedGust SpeedPrecipitationEventsConditions
4:59 AM50.0 °F37.4 °F62 %30.20 in8.0 miCalmScattered Clouds
5:43 AM48.2 °F37.4 °F66 %30.32 in8.0 miNW (320°)6.9 mphScattered Clouds
5:50 AM59.0 °F42.0 °F42 %29.82 in3.0 miCalmScattered Clouds
6:46 AM50.0 °F37.4 °F62 %30.33 in8.0 miNW (320°)6.9 mphMostly Cloudy
7:47 AM55.4 °F39.2 °F54 %30.34 in8.0 miNNW (340°)8.1 mphMostly Cloudy
8:50 AM66.0 °F47.0 °F39 %29.89 in3.0 miCalmHaze
8:52 AM64.4 °F41.0 °F42 %30.35 in8.0 miNorth (360°)4.6 mphMostly Cloudy
9:45 AM71.6 °F42.8 °F35 %30.35 in8.0 miESE (110°)5.8 mphMostly Cloudy
10:48 AM75.2 °F42.8 °F31 %30.33 in6.0 miSSE (160°)4.6 mphMostly Cloudy
11:49 AM77.0 °F37.4 °F24 %30.31 in6.0 miSSE (150°)6.9 mphMostly Cloudy
11:50 AM81.0 °F49.0 °F22 %29.81 in6.0 miSSW (210°)2.2 mphHaze
12:46 PM77.0 °F39.2 °F26 %30.28 in6.0 miSouth (190°)5.8 mphOvercast
1:48 PM77.0 °F41.0 °F28 %30.23 in6.0 miSSW (200°)20.7 mphOvercast
2:40 PM75.2 °F37.4 °F25 %30.23 in6.0 miSouth (190°)17.3 mphOvercast
2:50 PM83.0 °F46.0 °F18 %29.65 in6.0 miSouth (180°)2.2 mphHaze
3:46 PM75.2 °F33.8 °F22 %30.20 in6.0 miSSW (210°)15.0 mphOvercast
4:41 PM75.2 °F33.8 °F22 %30.20 in8.0 miESE (120°)12.7 mphOvercast
5:45 PM75.2 °F35.6 °F24 %30.20 in8.0 miSSW (210°)13.8 mphOvercast
5:50 PM78.0 °F38.0 °F14 %29.55 in9.0 miWSW (240°)2.2 mphHaze
6:46 PM69.8 °F37.4 °F31 %30.24 in8.0 miNE (50°)13.8 mphOvercast
7:47 PM66.2 °F41.0 °F40 %30.28 in8.0 miENE (60°)4.6 mphOvercast
8:46 PM66.2 °F41.0 °F40 %30.32 in8.0 miNNW (340°)11.5 mphMostly Cloudy
8:58 PM68.0 °F39.0 °F24 %29.60 in3.0 miENE (60°)2.2 mph
9:50 PM60.8 °F42.8 °F52 %30.33 in8.0 miNNE (20°)5.8 mphMostly Cloudy
10:49 PM60.8 °F44.6 °F55 %30.35 in8.0 miWNW (290°)6.9 mphMostly Cloudy
11:50 PM64.0 °F42.0 °F33 %29.73 in3.0 miCalmScattered Clouds
Hourly data recorded from MMPB, located miles away from Puebla - Jardines de San Manuel, Puebla







STORIES FROM OUR PARTNERS